KF5CFW Weather Reports


Display with metric or nautical units.
time (UTC)temp
F
wind
direction
speed
MPH
gust
MPH
rain 1hr
in
rain 24hr
in
rain mn
in
humidity
%
barometer
mb
20260902040028 89 148 0.0 0.0 0.00 0.00 0.00 52 1012.5
20260902034529 89 148 0.0 0.0 0.00 0.00 0.00 51 1012.6
20260902033027 90 148 0.0 0.0 0.00 0.00 0.00 51 1012.6
20260902031526 90 148 0.0 0.0 0.00 0.00 0.00 50 1012.5
20260902030025 90 148 0.0 0.0 0.00 0.00 0.00 51 1012.3
20260902024531 90 148 0.0 0.0 0.00 0.00 0.00 50 1012.0
20260902023025 90 148 0.0 0.0 0.00 0.00 0.00 49 1011.8
20260902021524 91 148 0.0 0.0 0.00 0.00 0.00 49 1011.7
20260902020023 91 148 0.0 0.0 0.00 0.00 0.00 48 1011.5
20260902014524 92 148 0.0 0.0 0.00 0.00 0.00 47 1011.3
20260902013023 92 148 0.0 0.0 0.00 0.00 0.00 46 1011.1
20260902011523 93 148 0.0 0.0 0.00 0.00 0.00 46 1011.0
20260902010022 93 148 0.0 1.0 0.00 0.00 0.00 45 1010.9
20260902004521 94 165 0.0 1.0 0.00 0.00 0.00 44 1010.9
20260902003022 95 127 0.0 1.0 0.00 0.00 0.00 44 1011.0
20260902001519 95 127 0.0 0.0 0.00 0.00 0.00 43 1011.0
20260902000017 96 127 0.0 0.0 0.00 0.00 0.00 42 1011.1
20260901234516 96 138 0.0 0.0 0.00 0.00 0.00 41 1011.3
20260901233016 97 95 0.0 1.0 0.00 0.00 0.00 39 1011.2
20260901231514 99 127 0.0 1.0 0.00 0.00 0.00 37 1011.2
20260901230014 102 144 0.0 1.0 0.00 0.00 0.00 36 1011.2
20260901224513 102 136 0.0 1.0 0.00 0.00 0.00 35 1011.2
20260901223012 101 154 0.0 1.0 0.00 0.00 0.00 35 1011.2
20260901221510 101 95 0.0 1.0 0.00 0.00 0.00 36 1011.3
20260901220015 100 62 0.0 2.0 0.00 0.00 0.00 36 1011.3
20260901214507 99 150 0.0 1.0 0.00 0.00 0.00 38 1011.5
20260901213011 100 44 0.0 0.0 0.00 0.00 0.00 37 1011.6
20260901211505 101 39 0.0 1.0 0.00 0.00 0.00 35 1011.8
20260901210004 101 151 0.0 1.0 0.00 0.00 0.00 35 1011.9
20260901204506 103 153 0.0 1.0 0.00 0.00 0.00 35 1012.0
20260901203002 102 348 0.0 1.0 0.00 0.00 0.00 35 1012.2
20260901201600 102 111 0.0 1.0 0.00 0.00 0.00 36 1012.4
20260901200058 103 237 0.0 1.0 0.00 0.00 0.00 35 1012.5
20260901194556 102 207 0.0 1.0 0.00 0.00 0.00 37 1012.7
20260901193056 100 146 0.0 1.0 0.00 0.00 0.00 39 1013.0
20260901190023 101 11 0.0 1.0 0.00 0.00 0.00 38 1013.3
20260901184520 102 38 0.0 1.0 0.00 0.00 0.00 37 1013.6
20260901183018 102 163 0.0 1.0 0.00 0.00 0.00 38 1013.9
20260901181515 100 155 0.0 2.0 0.00 0.00 0.00 39 1014.1
20260901180016 99 162 0.0 1.0 0.00 0.00 0.00 40 1014.3
20260901174512 100 65 0.0 1.0 0.00 0.00 0.00 40 1014.5
20260901173017 99 83 0.0 1.0 0.00 0.00 0.00 41 1014.8
20260901171512 99 56 0.0 1.0 0.00 0.00 0.00 41 1014.9
20260901170005 98 156 0.0 2.0 0.00 0.00 0.00 43 1015.1
20260901164505 97 139 0.0 2.0 0.00 0.00 0.00 44 1015.3
20260901163058 97 103 0.0 1.0 0.00 0.00 0.00 45 1015.4
20260901161607 96 198 0.0 1.0 0.00 0.00 0.00 47 1015.5
20260901160100 94 222 0.0 1.0 0.00 0.00 0.00 50 1015.4
20260901154554 93 321 0.0 1.0 0.00 0.00 0.00 52 1015.5
20260901153049 92 193 0.0 1.0 0.00 0.00 0.00 53 1015.4
20260901151539 90 235 0.0 1.0 0.00 0.00 0.00 56 1015.4
20260901150039 89 169 0.0 1.0 0.00 0.00 0.00 57 1015.5
20260901144538 88 217 0.0 0.0 0.00 0.00 0.00 58 1015.5
20260901143027 87 158 0.0 1.0 0.00 0.00 0.00 59 1015.7
20260901141525 86 243 0.0 1.0 0.00 0.00 0.00 59 1015.7
20260901140024 84 242 0.0 1.0 0.00 0.00 0.00 58 1015.7
20260901134526 83 243 0.0 0.0 0.00 0.00 0.00 56 1015.7
20260901133022 82 243 0.0 1.0 0.00 0.00 0.00 53 1015.6
20260901131525 81 249 0.0 1.0 0.00 0.00 0.00 49 1015.6
20260901130025 80 255 0.0 0.0 0.00 0.00 0.00 47 1015.4
20260901124520 79 253 0.0 0.0 0.00 0.00 0.00 47 1015.2
20260901123016 79 255 0.0 0.0 0.00 0.00 0.00 49 1015.0
20260901121514 79 253 0.0 0.0 0.00 0.00 0.00 51 1014.8
20260901120013 79 255 0.0 0.0 0.00 0.00 0.00 51 1014.6
20260901114511 79 253 0.0 0.0 0.00 0.00 0.00 50 1014.6
20260901113010 80 253 0.0 0.0 0.00 0.00 0.00 54 1014.6
20260901111507 80 253 0.0 0.0 0.00 0.00 0.00 57 1014.4
20260901110005 81 255 0.0 0.0 0.00 0.00 0.00 59 1014.1
20260901104506 81 255 0.0 0.0 0.00 0.00 0.00 60 1014.2
20260901103001 81 255 0.0 0.0 0.00 0.00 0.00 60 1014.1
20260901101605 82 255 0.0 0.0 0.00 0.00 0.00 60 1014.1
20260901100104 82 255 0.0 0.0 0.00 0.00 0.00 60 1014.1
20260901094556 83 155 0.0 0.0 0.00 0.00 0.00 60 1014.1
20260901093054 83 72 0.0 0.0 0.00 0.00 0.00 60 1014.2
20260901091553 84 233 0.0 1.0 0.00 0.00 0.00 60 1014.2
20260901090053 84 190 0.0 1.0 0.00 0.00 0.00 59 1014.1
20260901084552 84 145 0.0 1.0 0.00 0.00 0.00 59 1014.0
20260901083048 85 149 0.0 1.0 0.00 0.00 0.00 58 1014.1
20260901081546 85 150 0.0 1.0 0.00 0.00 0.00 58 1014.1
20260901080045 86 152 0.0 1.0 0.00 0.00 0.00 57 1014.0
20260901074547 86 158 0.0 1.0 0.00 0.00 0.00 55 1014.1
20260901073044 86 158 0.0 1.0 0.00 0.00 0.00 54 1014.0
20260901071541 86 155 0.0 0.0 0.00 0.00 0.00 53 1013.9
20260901070049 86 136 0.0 1.0 0.00 0.00 0.00 52 1013.7
20260901064537 86 155 0.0 1.0 0.00 0.00 0.00 52 1013.5
20260901063035 86 140 0.0 1.0 0.00 0.00 0.00 51 1013.5
20260901061531 86 140 0.0 0.0 0.00 0.00 0.00 50 1013.5
20260901060029 86 139 0.0 1.0 0.00 0.00 0.00 49 1013.2
20260901054525 86 135 0.0 0.0 0.00 0.00 0.00 49 1013.1
20260901053022 86 136 0.0 0.0 0.00 0.00 0.00 48 1013.0
20260901051520 86 136 0.0 0.0 0.00 0.00 0.00 47 1012.8
20260901050017 86 135 0.0 0.0 0.00 0.00 0.00 46 1012.8
20260901044535 86 135 0.0 0.0 0.00 0.00 0.00 46 1012.7
20260901043016 86 136 0.0 0.0 0.00 0.00 0.00 46 1012.8
20260901041525 86 136 0.0 0.0 0.00 0.00 0.00 45 1012.7